This is the latest recevied weather packets stored in our database for station/object KE5KUL-13. If no packets are shown the sender has not sent any weather packets the latest 10 day(s).
| Time | Temp. | Humidity | Pressure | Rain* | Wind** | Luminosity | Snow |
|---|---|---|---|---|---|---|---|
| 1777774217 | 18.33° C | 27% | 1021.6 hPa | 0 mm | - | - | - |
| 1777773617 | 18.89° C | 26% | 1021.3 hPa | 0 mm | - | - | - |
| 1777773017 | 19.44° C | 25% | 1021.1 hPa | 0 mm | - | - | - |
| 1777772418 | 20° C | 25% | 1020.8 hPa | 0 mm | - | - | - |
| 1777771817 | 20.56° C | 24% | 1020.7 hPa | 0 mm | - | - | - |
| 1777771217 | 20.56° C | 23% | 1020.5 hPa | 0 mm | - | - | - |
| 1777770617 | 21.11° C | 21% | 1020.4 hPa | 0 mm | - | - | - |
| 1777770017 | 21.67° C | 21% | 1020.3 hPa | 0 mm | - | - | - |
| 1777769417 | 21.67° C | 20% | 1020.2 hPa | 0 mm | - | - | - |
| 1777768817 | 22.22° C | 21% | 1020.2 hPa | 0 mm | - | - | - |
| 1777768217 | 22.22° C | 20% | 1020.1 hPa | 0 mm | - | - | - |
| 1777767617 | 22.22° C | 20% | 1020.2 hPa | 0 mm | - | - | - |
| 1777767017 | 22.78° C | 20% | 1020.4 hPa | 0 mm | - | - | - |
| 1777766417 | 22.78° C | 19% | 1020.5 hPa | 0 mm | - | - | - |
| 1777765819 | 23.33° C | 19% | 1020.5 hPa | 0 mm | - | - | - |
| 1777765217 | 23.33° C | 18% | 1021 hPa | 0 mm | - | - | - |
| 1777764619 | 22.78° C | 19% | 1020.9 hPa | 0 mm | - | - | - |
| 1777764017 | 23.33° C | 18% | 1021.2 hPa | 0 mm | - | - | - |
| 1777763417 | 23.89° C | 18% | 1021.2 hPa | 0 mm | - | - | - |
| 1777762835 | 24.44° C | 17% | 1021.5 hPa | 0 mm | - | - | - |
| 1777762219 | 24.44° C | 17% | 1021.6 hPa | 0 mm | - | - | - |
| 1777761617 | 25° C | 17% | 1021.6 hPa | 0 mm | - | - | - |
| 1777761017 | 25.56° C | 16% | 1021.9 hPa | 0 mm | - | - | - |
| 1777760417 | 26.11° C | 16% | 1022 hPa | 0 mm | - | - | - |
| 1777759817 | 25° C | 17% | 1021.9 hPa | 0 mm | - | - | - |
* Rain latest hour (hover to see other rain measurements)
** Current wind speed in m/s (hover to see current wind gust speed)